Flag for Canada Weather past 2 weeks in Rankin Inlet, Nunavut Territory, Canada

Now
52 °F

Passing clouds.


Feels Like: 49 °F
Forecast: 44 / 62 °F
Wind: 9 mph from South

Location: Rankin Inlet

Current Time: Jul 28, 2014 at 10:48:44 PM

Latest Report: Jul 28, 2014 at 10:00 PM


Visibility: 15 mi

Pressure: 30.18 "Hg

Humidity: 82%

Dew point: 46 °F

Location of Rankin InletLocation

Historic Weather in Rankin Inlet — Graph

°F

Rankin Inlet temperature yesterday

Maximum temperature yesterday: 72 °F (at 1:00 PM)
Minimum temperature yesterday: 55 °F (at 10:00 PM)
Average temperature yesterday: 66 °F

Past Weeks' High & Low Weather Summary

 TemperatureHumidityPressure
High77 °F (Jul 26, 4:00 PM)100% (Jul 17, 6:00 AM)30.27 "Hg (Jul 17, 6:00 AM)
Low41 °F (Jul 21, 4:00 AM)38% (Jul 24, 5:00 PM)29.23 "Hg (Jul 17, 8:00 AM)
Average56 °F74%29.82 "Hg
* Reported Jul 13 9:00 PM — Jul 28 9:00 PM, Rankin Inlet, Weather by CustomWeather, © 2014

Note: Actual official high and low records may vary slightly from our data, if they occured in-between our weather recording intervals... More about our weather records

Advertising

Rankin Inlet weather history for previous 24 hours

 ConditionsComfort  
Time TempWeatherWind HumidityBarometerVisibility
9:00 PM
Jul 28
54 °FPassing clouds.8 mph77%30.18 "Hg15 mi
8:00 PM55 °FPassing clouds.6 mph77%30.19 "Hg15 mi
7:00 PM57 °FPassing clouds.8 mph72%30.19 "Hg15 mi
6:00 PM57 °FScattered clouds.7 mph72%30.19 "Hg15 mi
5:00 PM57 °FScattered clouds.10 mph72%30.19 "Hg15 mi
4:00 PM59 °FScattered clouds.9 mph68%30.19 "Hg15 mi
3:00 PM57 °FPassing clouds.10 mph67%30.19 "Hg15 mi
2:00 PM57 °FPassing clouds.9 mph67%30.19 "Hg15 mi
1:00 PM55 °FPassing clouds.10 mph72%30.19 "Hg15 mi
12:00 PM54 °FPassing clouds.9 mph77%30.19 "Hg15 mi
11:00 AM54 °FScattered clouds.9 mph77%30.18 "Hg15 mi
10:00 AM54 °FScattered clouds.10 mph77%30.17 "Hg15 mi
9:00 AM52 °FScattered clouds.13 mph82%30.16 "Hg15 mi
8:00 AM50 °FScattered clouds.13 mph88%30.16 "Hg12 mi
7:00 AM50 °FScattered clouds.12 mph88%30.15 "Hg10 mi
6:00 AM48 °FScattered clouds.13 mph94%30.14 "Hg10 mi
5:00 AM48 °FPassing clouds.13 mph94%30.12 "Hg10 mi
4:00 AM48 °FPassing clouds.14 mph94%30.11 "Hg12 mi
3:00 AM48 °FPassing clouds.14 mph94%30.09 "Hg12 mi
2:00 AM48 °FPassing clouds.14 mph94%30.07 "Hg12 mi
1:00 AM50 °FFog.14 mph94%30.07 "Hg2 mi
12:53 AM50 °FFog.13 mph94%30.07 "Hg2 mi
12:00 AM52 °FPassing clouds.10 mph88%30.06 "Hg12 mi
11:00 PM
Jul 27
55 °FPassing clouds.14 mph82%30.03 "Hg12 mi
10:00 PM55 °FPartly sunny.13 mph82%30.02 "Hg8 mi
Weather by CustomWeather, © 2014

See weather overviewHow to use our weather pages